,,,PA_Meas_PMT16A,,PR_Meas_QMR101_102,,RH_Meas_QMH101,,SR_Meas_QMS101,,TA_Meas_QMH101,,GenWind,,GenWind,
date,time,status,PA,status,PR,status,RH,status,SR,status,TA,status,DirAvg,status,SpdAvg,
2012-07-08, 00:00:04,VALID,998.658,VALID,0,VALID,93.2034,VALID,0,VALID,23.389,VALID,352,VALID,0.161328,
2012-07-08, 00:01:04,VALID,998.658,VALID,0,VALID,93.3103,VALID,0,VALID,23.389,VALID,352,VALID,0.231641,
2012-07-08, 00:02:04,VALID,998.665,VALID,0,VALID,93.4094,VALID,0,VALID,23.389,VALID,352,VALID,0.282031,
2012-07-08, 00:03:04,VALID,998.645,VALID,0,VALID,93.4857,VALID,0,VALID,23.389,VALID,352,VALID,0.1375,
2012-07-08, 00:04:04,VALID,998.628,VALID,0,VALID,93.4705,VALID,0,VALID,23.389,VALID,352,VALID,0.0972656,
2012-07-08, 00:05:04,VALID,998.604,VALID,0,VALID,93.4857,VALID,0,VALID,23.389,VALID,352,VALID,0.290234,
2012-07-08, 00:06:04,VALID,998.606,VALID,0,VALID,93.5544,VALID,0,VALID,23.3695,VALID,352,VALID,0.439453,
2012-07-08, 00:07:04,VALID,998.582,VALID,0,VALID,93.7375,VALID,0,VALID,23.389,VALID,352,VALID,0.352344,
2012-07-08, 00:08:04,VALID,998.565,VALID,0,VALID,93.7909,VALID,0,VALID,23.389,VALID,352,VALID,0.248828,
2012-07-08, 00:09:04,VALID,998.527,VALID,0,VALID,93.852,VALID,0,VALID,23.4085,VALID,352,VALID,0.232422,
2012-07-08, 00:10:04,VALID,998.541,VALID,0,VALID,93.8748,VALID,0,VALID,23.4067,VALID,352,VALID,0.178906,
2012-07-08, 00:11:04,VALID,998.514,VALID,0,VALID,93.913,VALID,0,VALID,23.4067,VALID,352,VALID,0.425,
2012-07-08, 00:12:04,VALID,998.518,VALID,0,VALID,93.8443,VALID,0,VALID,23.4067,VALID,352,VALID,0.439453,
2012-07-08, 00:13:04,VALID,998.494,VALID,0,VALID,93.7757,VALID,0,VALID,23.4475,VALID,352,VALID,0.611719,
2012-07-08, 00:14:04,VALID,998.474,VALID,0,VALID,93.6841,VALID,0,VALID,23.4671,VALID,352,VALID,0.514063,
2012-07-08, 00:15:04,VALID,998.486,VALID,0,VALID,93.5468,VALID,0,VALID,23.4671,VALID,352,VALID,0.424609,
2012-07-08, 00:16:04,VALID,998.467,VALID,0,VALID,93.4705,VALID,0,VALID,23.4671,VALID,352,VALID,0.549609,
2012-07-08, 00:17:04,VALID,998.465,VALID,0,VALID,93.501,VALID,0,VALID,23.4671,VALID,352,VALID,0.399609,
2012-07-08, 00:18:04,VALID,998.489,VALID,0,VALID,93.4552,VALID,0,VALID,23.4866,VALID,352,VALID,0.348047,
2012-07-08, 00:19:04,VALID,998.492,VALID,0,VALID,93.4705,VALID,0,VALID,23.5061,VALID,352,VALID,0.495703,
2012-07-08, 00:20:04,VALID,998.474,VALID,0,VALID,93.4705,VALID,0,VALID,23.5238,VALID,352,VALID,0.208984,
2012-07-08, 00:21:04,VALID,998.472,VALID,0,VALID,93.3637,VALID,0,VALID,23.5646,VALID,352,VALID,0.175391,
2012-07-08, 00:22:04,VALID,998.458,VALID,0,VALID,93.3255,VALID,0,VALID,23.5646,VALID,352,VALID,0,
2012-07-08, 00:23:04,VALID,998.446,VALID,0,VALID,93.2721,VALID,0,VALID,23.5841,VALID,352,VALID,0,
2012-07-08, 00:24:04,VALID,998.401,VALID,0,VALID,93.2568,VALID,0,VALID,23.5841,VALID,34,VALID,0.667578,
2012-07-08, 00:25:04,VALID,998.365,VALID,0,VALID,93.089,VALID,0,VALID,23.6622,VALID,117,VALID,0.235156,
2012-07-08, 00:26:04,VALID,998.367,VALID,0,VALID,92.822,VALID,0,VALID,23.7207,VALID,118,VALID,0.677734,
2012-07-08, 00:27:04,VALID,998.369,VALID,0,VALID,92.4176,VALID,0,VALID,23.7579,VALID,119,VALID,0.638672,
2012-07-08, 00:28:04,VALID,998.336,VALID,0,VALID,91.7843,VALID,0,VALID,23.8378,VALID,149,VALID,0.959766,
2012-07-08, 00:29:04,VALID,998.333,VALID,0,VALID,91.2503,VALID,0,VALID,23.9354,VALID,157,VALID,0.83125,
2012-07-08, 00:30:04,VALID,998.346,VALID,0,VALID,90.5712,VALID,0,VALID,24.0329,VALID,157,VALID,0.867969,
2012-07-08, 00:31:04,VALID,998.301,VALID,0,VALID,89.9303,VALID,0,VALID,24.1305,VALID,157,VALID,0.839063,
2012-07-08, 00:32:04,VALID,998.309,VALID,0,VALID,89.3963,VALID,0,VALID,24.1696,VALID,157,VALID,0.589844,
2012-07-08, 00:33:04,VALID,998.316,VALID,0,VALID,88.9385,VALID,0,VALID,24.2086,VALID,156,VALID,0.877344,
2012-07-08, 00:34:04,VALID,998.289,VALID,0,VALID,88.6638,VALID,0,VALID,24.2476,VALID,157,VALID,0.43125,
2012-07-08, 00:35:04,VALID,998.302,VALID,0,VALID,88.0611,VALID,0,VALID,24.2476,VALID,156,VALID,0.728125,
2012-07-08, 00:36:04,VALID,998.286,VALID,0,VALID,88.0382,VALID,0,VALID,24.2281,VALID,157,VALID,0.951953,
2012-07-08, 00:37:04,VALID,998.27,VALID,0,VALID,88.2289,VALID,0,VALID,24.2495,VALID,157,VALID,0.841406,
2012-07-08, 00:38:04,VALID,998.273,VALID,0,VALID,88.1984,VALID,0,VALID,24.2476,VALID,157,VALID,0.980469,
2012-07-08, 00:39:04,VALID,998.261,VALID,0,VALID,88.0916,VALID,0,VALID,24.2476,VALID,157,VALID,1.11406,
2012-07-08, 00:40:04,VALID,998.277,VALID,0,VALID,88.0992,VALID,0,VALID,24.2671,VALID,156,VALID,1.12422,
2012-07-08, 00:41:04,VALID,998.273,VALID,0,VALID,88.206,VALID,0,VALID,24.308,VALID,156,VALID,1.27695,
2012-07-08, 00:42:04,VALID,998.267,VALID,0,VALID,88.084,VALID,0,VALID,24.2866,VALID,156,VALID,1.06289,
2012-07-08, 00:43:04,VALID,998.227,VALID,0,VALID,88.1297,VALID,0,VALID,24.2476,VALID,143,VALID,0.959375,
2012-07-08, 00:44:04,VALID,998.249,VALID,0,VALID,88.2671,VALID,0,VALID,24.2476,VALID,143,VALID,0.782812,
2012-07-08, 00:45:04,VALID,998.249,VALID,0,VALID,88.3434,VALID,0,VALID,24.2281,VALID,143,VALID,0.71875,
2012-07-08, 00:46:04,VALID,998.212,VALID,0,VALID,88.5265,VALID,0,VALID,24.2086,VALID,143,VALID,0.8625,
2012-07-08, 00:47:04,VALID,998.201,VALID,0,VALID,88.5417,VALID,0,VALID,24.1891,VALID,143,VALID,0.611719,
2012-07-08, 00:48:04,VALID,998.218,VALID,0,VALID,88.6714,VALID,0,VALID,24.1696,VALID,143,VALID,0.641797,
2012-07-08, 00:49:04,VALID,998.209,VALID,0,VALID,88.8698,VALID,0,VALID,24.15,VALID,143,VALID,0.397266,
2012-07-08, 00:50:04,VALID,998.156,VALID,0,VALID,88.8011,VALID,0,VALID,24.111,VALID,143,VALID,0.0785156,
2012-07-08, 00:51:04,VALID,998.169,VALID,0,VALID,88.8774,VALID,0,VALID,24.0915,VALID,143,VALID,0,
2012-07-08, 00:52:04,VALID,998.176,VALID,0,VALID,88.8927,VALID,0,VALID,24.0525,VALID,143,VALID,0,
2012-07-08, 00:53:04,VALID,998.168,VALID,0,VALID,89.1368,VALID,0,VALID,24.0134,VALID,143,VALID,0,
2012-07-08, 00:54:04,VALID,998.138,VALID,0,VALID,89.2971,VALID,0,VALID,24.0134,VALID,143,VALID,0.0476562,
2012-07-08, 00:55:04,VALID,998.144,VALID,0,VALID,89.1216,VALID,0,VALID,23.9354,VALID,143,VALID,0.521484,
2012-07-08, 00:56:04,VALID,998.103,VALID,0,VALID,89.1674,VALID,0,VALID,23.8378,VALID,143,VALID,0.223438,
2012-07-08, 00:57:04,VALID,998.125,VALID,0,VALID,89.6404,VALID,0,VALID,23.7793,VALID,143,VALID,0.391016,
2012-07-08, 00:58:04,VALID,998.137,VALID,0,VALID,90.06,VALID,0,VALID,23.6817,VALID,143,VALID,0.303906,
2012-07-08, 00:59:04,VALID,998.136,VALID,0,VALID,90.5254,VALID,0,VALID,23.6427,VALID,143,VALID,0.169141,
2012-07-08, 01:00:04,VALID,998.111,VALID,0,VALID,90.6933,VALID,0,VALID,23.6036,VALID,143,VALID,0.183984,
2012-07-08, 01:01:04,VALID,998.122,VALID,0,VALID,91.0061,VALID,0,VALID,23.5646,VALID,143,VALID,0.279687,
2012-07-08, 01:02:04,VALID,998.104,VALID,0,VALID,91.2045,VALID,0,VALID,23.5061,VALID,143,VALID,0.18125,
2012-07-08, 01:03:04,VALID,998.112,VALID,0,VALID,91.5554,VALID,0,VALID,23.5061,VALID,143,VALID,0.231641,
2012-07-08, 01:04:04,VALID,998.092,VALID,0,VALID,91.6928,VALID,0,VALID,23.5256,VALID,143,VALID,0.275781,
2012-07-08, 01:05:04,VALID,998.095,VALID,0,VALID,91.7157,VALID,0,VALID,23.5061,VALID,143,VALID,0.545703,
2012-07-08, 01:06:04,VALID,998.061,VALID,0,VALID,91.6241,VALID,0,VALID,23.4866,VALID,143,VALID,0.726563,
2012-07-08, 01:07:04,VALID,997.998,VALID,0,VALID,91.2731,VALID,0,VALID,23.4493,VALID,137,VALID,0.658203,
2012-07-08, 01:08:04,VALID,998.038,VALID,0,VALID,91.174,VALID,0,VALID,23.3695,VALID,19,VALID,0.835156,
2012-07-08, 01:09:04,VALID,998.016,VALID,0,VALID,91.2045,VALID,0,VALID,23.2719,VALID,19,VALID,0.696094,
2012-07-08, 01:10:04,VALID,998.01,VALID,0,VALID,91.5249,VALID,0,VALID,23.1939,VALID,19,VALID,0.675391,
2012-07-08, 01:11:04,VALID,998.01,VALID,0,VALID,91.9903,VALID,0,VALID,23.1744,VALID,19,VALID,0.651953,
2012-07-08, 01:12:04,VALID,998.009,VALID,0,VALID,92.2192,VALID,0,VALID,23.1549,VALID,19,VALID,0.712109,
2012-07-08, 01:13:04,VALID,998.008,VALID,0,VALID,92.6083,VALID,0,VALID,23.1549,VALID,19,VALID,0.772656,
2012-07-08, 01:14:04,VALID,998.013,VALID,0,VALID,92.6388,VALID,0,VALID,23.1354,VALID,19,VALID,0.457031,
2012-07-08, 01:15:04,VALID,998.004,VALID,0,VALID,92.5549,VALID,0,VALID,23.1159,VALID,19,VALID,0.368359,
2012-07-08, 01:16:04,VALID,998.019,VALID,0,VALID,92.5473,VALID,0,VALID,23.0769,VALID,19,VALID,0.235938,
2012-07-08, 01:17:04,VALID,998.009,VALID,0,VALID,92.6923,VALID,0.104696,VALID,23.0378,VALID,19,VALID,0.447656,
2012-07-08, 01:18:04,VALID,998.003,VALID,0,VALID,92.7762,VALID,0,VALID,23.0591,VALID,19,VALID,0.479297,
2012-07-08, 01:19:04,VALID,997.959,VALID,0,VALID,92.9822,VALID,0,VALID,23.0183,VALID,19,VALID,0.50625,
2012-07-08, 01:20:04,VALID,997.957,VALID,0,VALID,93.1348,VALID,0,VALID,23.0591,VALID,19,VALID,0.471875,
2012-07-08, 01:21:04,VALID,997.91,VALID,0,VALID,93.2797,VALID,0,VALID,23.0378,VALID,19,VALID,0.353516,
2012-07-08, 01:22:04,VALID,997.899,VALID,0,VALID,93.3179,VALID,0,VALID,23.0378,VALID,19,VALID,0.284766,
2012-07-08, 01:23:04,VALID,997.848,VALID,0,VALID,93.3255,VALID,0,VALID,23.0378,VALID,19,VALID,0.312891,
2012-07-08, 01:24:04,VALID,997.845,VALID,0,VALID,93.3255,VALID,0,VALID,23.0183,VALID,19,VALID,0,
2012-07-08, 01:25:04,VALID,997.81,VALID,0,VALID,93.3866,VALID,0,VALID,23.0183,VALID,19,VALID,0,
2012-07-08, 01:26:04,VALID,997.807,VALID,0,VALID,93.501,VALID,0,VALID,23.0378,VALID,19,VALID,0.310937,
2012-07-08, 01:27:04,VALID,997.812,VALID,0,VALID,93.6154,VALID,0,VALID,23.0573,VALID,19,VALID,0.323438,
2012-07-08, 01:28:04,VALID,997.821,VALID,0,VALID,93.6994,VALID,0,VALID,23.0769,VALID,19,VALID,0.677344,
2012-07-08, 01:29:04,VALID,997.826,VALID,0,VALID,93.6917,VALID,0,VALID,23.0964,VALID,19,VALID,0.66875,
2012-07-08, 01:30:04,VALID,997.823,VALID,0,VALID,93.6612,VALID,0,VALID,23.1159,VALID,19,VALID,0.598828,
2012-07-08, 01:31:04,VALID,997.826,VALID,0,VALID,93.5926,VALID,0,VALID,23.1159,VALID,19,VALID,0.745313,
2012-07-08, 01:32:04,VALID,997.834,VALID,0,VALID,93.5391,VALID,0,VALID,23.1159,VALID,19,VALID,0.858594,
2012-07-08, 01:33:04,VALID,997.822,VALID,0,VALID,93.5315,VALID,0,VALID,23.1159,VALID,19,VALID,0.867578,
2012-07-08, 01:34:04,VALID,997.846,VALID,0,VALID,93.5697,VALID,0,VALID,23.1159,VALID,19,VALID,0.990234,
2012-07-08, 01:35:04,VALID,997.838,VALID,0,VALID,93.6841,VALID,0,VALID,23.0769,VALID,19,VALID,1.00312,
2012-07-08, 01:36:04,VALID,997.854,VALID,0,VALID,93.707,VALID,0,VALID,23.0378,VALID,19,VALID,1.13867,
2012-07-08, 01:37:04,VALID,997.857,VALID,0,VALID,93.5697,VALID,0,VALID,22.9793,VALID,19,VALID,1.13086,
2012-07-08, 01:38:04,VALID,997.828,VALID,0,VALID,93.5697,VALID,0,VALID,22.9013,VALID,19,VALID,1.13867,
2012-07-08, 01:39:04,VALID,997.821,VALID,0,VALID,93.5544,VALID,0,VALID,22.8818,VALID,19,VALID,0.997266,
2012-07-08, 01:40:04,VALID,997.859,VALID,0,VALID,93.5926,VALID,0,VALID,22.8623,VALID,19,VALID,0.883203,
2012-07-08, 01:41:04,VALID,997.863,VALID,0,VALID,93.6688,VALID,0,VALID,22.8427,VALID,19,VALID,0.716406,
2012-07-08, 01:42:04,VALID,997.879,VALID,0,VALID,93.6994,VALID,0,VALID,22.8232,VALID,19,VALID,0.526563,
2012-07-08, 01:43:04,VALID,997.921,VALID,0,VALID,93.7528,VALID,0,VALID,22.8232,VALID,19,VALID,0.496875,
2012-07-08, 01:44:04,VALID,997.904,VALID,0,VALID,93.8062,VALID,0,VALID,22.8037,VALID,19,VALID,0.412109,
2012-07-08, 01:45:04,VALID,997.918,VALID,0,VALID,93.8977,VALID,0,VALID,22.8037,VALID,19,VALID,0.305859,
2012-07-08, 01:46:04,VALID,997.93,VALID,0,VALID,93.9206,VALID,0,VALID,22.7825,VALID,19,VALID,0.187109,
2012-07-08, 01:47:04,VALID,997.92,VALID,0,VALID,93.9969,VALID,0,VALID,22.8037,VALID,19,VALID,0,
2012-07-08, 01:48:04,VALID,997.952,VALID,0,VALID,94.0274,VALID,0,VALID,22.8232,VALID,19,VALID,0.111719,
2012-07-08, 01:49:04,VALID,997.953,VALID,0,VALID,94.0808,VALID,0,VALID,22.8232,VALID,19,VALID,0.117578,
2012-07-08, 01:50:04,VALID,997.955,VALID,0,VALID,94.1648,VALID,0,VALID,22.8215,VALID,19,VALID,0.154297,
2012-07-08, 01:51:04,VALID,997.979,VALID,0,VALID,94.2411,VALID,0,VALID,22.8623,VALID,19,VALID,0.129297,
2012-07-08, 01:52:04,VALID,997.974,VALID,0,VALID,94.2868,VALID,0,VALID,22.8605,VALID,19,VALID,0,
2012-07-08, 01:53:04,VALID,998.002,VALID,0,VALID,94.3326,VALID,0,VALID,22.9208,VALID,19,VALID,0,
2012-07-08, 01:54:04,VALID,998.014,VALID,0,VALID,94.4013,VALID,0,VALID,22.9385,VALID,19,VALID,0.325781,
2012-07-08, 01:55:04,VALID,998.024,VALID,0,VALID,94.4623,VALID,0,VALID,22.9971,VALID,19,VALID,0.733594,
2012-07-08, 01:56:04,VALID,998.034,VALID,0,VALID,94.4776,VALID,0,VALID,23.0556,VALID,19,VALID,0.663672,
2012-07-08, 01:57:04,VALID,997.998,VALID,0,VALID,94.4089,VALID,0,VALID,23.0946,VALID,19,VALID,0.628906,
2012-07-08, 01:58:04,VALID,998.001,VALID,0,VALID,94.3784,VALID,0,VALID,23.1744,VALID,19,VALID,0.578516,
2012-07-08, 01:59:04,VALID,997.974,VALID,0,VALID,94.3097,VALID,0,VALID,23.2329,VALID,19,VALID,0.697266,
2012-07-08, 02:00:04,VALID,997.959,VALID,0,VALID,94.2868,VALID,0,VALID,23.311,VALID,19,VALID,0.723047,
2012-07-08, 02:01:04,VALID,997.947,VALID,0,VALID,94.0885,VALID,0,VALID,23.389,VALID,19,VALID,0.395703,
2012-07-08, 02:02:04,VALID,997.945,VALID,0,VALID,93.646,VALID,0,VALID,23.389,VALID,19,VALID,0.29375,
2012-07-08, 02:03:04,VALID,997.921,VALID,0,VALID,93.2492,VALID,0,VALID,23.3695,VALID,19,VALID,0.436328,
2012-07-08, 02:04:04,VALID,997.938,VALID,0,VALID,92.9974,VALID,0,VALID,23.3305,VALID,19,VALID,0.485938,
2012-07-08, 02:05:04,VALID,997.945,VALID,0,VALID,92.8983,VALID,0,VALID,23.2915,VALID,19,VALID,0.410156,
2012-07-08, 02:06:04,VALID,997.934,VALID,0,VALID,92.8677,VALID,0,VALID,23.2312,VALID,19,VALID,0.519141,
2012-07-08, 02:07:04,VALID,997.949,VALID,0,VALID,92.883,VALID,0,VALID,23.2134,VALID,19,VALID,0.551953,
2012-07-08, 02:08:04,VALID,997.918,VALID,0,VALID,92.9898,VALID,0,VALID,23.1744,VALID,19,VALID,0.308203,
2012-07-08, 02:09:04,VALID,997.899,VALID,0,VALID,93.1958,VALID,0,VALID,23.1354,VALID,19,VALID,0.165625,
2012-07-08, 02:10:04,VALID,997.904,VALID,0,VALID,93.2721,VALID,0,VALID,23.1159,VALID,19,VALID,0.00273437,
2012-07-08, 02:11:04,VALID,997.881,VALID,0,VALID,93.2568,VALID,0,VALID,23.0769,VALID,19,VALID,0.015625,
2012-07-08, 02:12:04,VALID,997.851,VALID,0,VALID,93.1805,VALID,0,VALID,23.0183,VALID,19,VALID,0,
2012-07-08, 02:13:04,VALID,997.881,VALID,0,VALID,93.3789,VALID,0,VALID,22.9988,VALID,19,VALID,0.0015625,
2012-07-08, 02:14:04,VALID,997.881,VALID,0,VALID,93.6841,VALID,0,VALID,23.0183,VALID,19,VALID,0.111328,
2012-07-08, 02:15:04,VALID,997.862,VALID,0,VALID,93.7604,VALID,0,VALID,22.9988,VALID,19,VALID,0.192969,
2012-07-08, 02:16:04,VALID,997.892,VALID,0,VALID,93.7604,VALID,0,VALID,22.9793,VALID,19,VALID,0,
2012-07-08, 02:17:04,VALID,997.872,VALID,0,VALID,93.7909,VALID,0,VALID,22.9793,VALID,19,VALID,0,
2012-07-08, 02:18:04,VALID,997.864,VALID,0,VALID,93.8291,VALID,0,VALID,22.9793,VALID,19,VALID,0.176172,
2012-07-08, 02:19:04,VALID,997.838,VALID,0,VALID,93.9054,VALID,0,VALID,22.9598,VALID,19,VALID,0.0671875,
2012-07-08, 02:20:04,VALID,997.83,VALID,0,VALID,93.8825,VALID,0,VALID,22.9403,VALID,19,VALID,0,
2012-07-08, 02:21:04,VALID,997.804,VALID,0,VALID,93.8291,VALID,0,VALID,22.9208,VALID,19,VALID,0,
2012-07-08, 02:22:04,VALID,997.775,VALID,0,VALID,93.913,VALID,0,VALID,22.9208,VALID,19,VALID,0.255078,
2012-07-08, 02:23:04,VALID,997.789,VALID,0,VALID,94.0427,VALID,0,VALID,22.9598,VALID,19,VALID,0.0894531,
2012-07-08, 02:24:04,VALID,997.764,VALID,0,VALID,94.0885,VALID,0,VALID,22.9793,VALID,19,VALID,0.445703,
2012-07-08, 02:25:04,VALID,997.76,VALID,0,VALID,94.0274,VALID,0,VALID,22.9793,VALID,19,VALID,0.479297,
2012-07-08, 02:26:04,VALID,997.757,VALID,0,VALID,94.0351,VALID,0,VALID,22.9793,VALID,19,VALID,0.466016,
2012-07-08, 02:27:04,VALID,997.739,VALID,0,VALID,94.0351,VALID,0,VALID,22.9988,VALID,19,VALID,0.598828,
2012-07-08, 02:28:04,VALID,997.71,VALID,0,VALID,94.0427,VALID,0,VALID,22.9988,VALID,19,VALID,0.597656,
2012-07-08, 02:29:04,VALID,997.716,VALID,0,VALID,94.1037,VALID,0,VALID,22.9793,VALID,19,VALID,0.448438,
2012-07-08, 02:30:04,VALID,997.715,VALID,0,VALID,94.1648,VALID,0,VALID,22.9988,VALID,19,VALID,0.329297,
2012-07-08, 02:31:04,VALID,997.712,VALID,0,VALID,94.2029,VALID,0,VALID,22.9988,VALID,19,VALID,0.288281,
2012-07-08, 02:32:04,VALID,997.728,VALID,0,VALID,94.2792,VALID,0,VALID,22.9988,VALID,19,VALID,0.270703,
2012-07-08, 02:33:04,VALID,997.759,VALID,0,VALID,94.2868,VALID,0,VALID,23.0183,VALID,19,VALID,0.147266,
2012-07-08, 02:34:04,VALID,997.775,VALID,0,VALID,94.3326,VALID,0,VALID,22.9988,VALID,19,VALID,0,
2012-07-08, 02:35:04,VALID,997.805,VALID,0,VALID,94.325,VALID,0,VALID,22.9988,VALID,19,VALID,0,
2012-07-08, 02:36:04,VALID,997.806,VALID,0,VALID,94.3708,VALID,0,VALID,23.0183,VALID,19,VALID,0,
2012-07-08, 02:37:04,VALID,997.8,VALID,0,VALID,94.4089,VALID,0,VALID,22.9971,VALID,19,VALID,0,
2012-07-08, 02:38:04,VALID,997.843,VALID,0,VALID,94.4013,VALID,0,VALID,23.0183,VALID,19,VALID,0,
2012-07-08, 02:39:04,VALID,997.859,VALID,0,VALID,94.2945,VALID,0,VALID,22.9988,VALID,19,VALID,0.659375,
2012-07-08, 02:40:04,VALID,997.893,VALID,0,VALID,94.2792,VALID,0,VALID,22.9793,VALID,19,VALID,0.641016,
2012-07-08, 02:41:04,VALID,997.901,VALID,0,VALID,94.3937,VALID,0,VALID,22.9793,VALID,19,VALID,0.743359,
2012-07-08, 02:42:04,VALID,997.926,VALID,0,VALID,94.3555,VALID,0,VALID,22.9598,VALID,19,VALID,0.848437,
2012-07-08, 02:43:04,VALID,997.915,VALID,0,VALID,94.3021,VALID,0,VALID,22.9208,VALID,19,VALID,0.751172,
2012-07-08, 02:44:04,VALID,997.913,VALID,0,VALID,94.3021,VALID,0,VALID,22.9208,VALID,19,VALID,0.861328,
2012-07-08, 02:45:04,VALID,997.93,VALID,0,VALID,94.2563,VALID,0,VALID,22.9208,VALID,19,VALID,0.957812,
2012-07-08, 02:46:04,VALID,997.912,VALID,0,VALID,94.1648,VALID,0,VALID,22.8818,VALID,19,VALID,1.03516,
2012-07-08, 02:47:04,VALID,997.928,VALID,0,VALID,94.1037,VALID,0,VALID,22.8623,VALID,19,VALID,0.916406,
2012-07-08, 02:48:04,VALID,997.919,VALID,0,VALID,94.119,VALID,0,VALID,22.8623,VALID,19,VALID,0.942578,
2012-07-08, 02:49:04,VALID,997.943,VALID,0,VALID,94.1877,VALID,0,VALID,22.8623,VALID,19,VALID,1.02305,
2012-07-08, 02:50:04,VALID,997.941,VALID,0,VALID,94.3097,VALID,0,VALID,22.841,VALID,19,VALID,0.885547,
2012-07-08, 02:51:04,VALID,997.941,VALID,0,VALID,94.3097,VALID,0,VALID,22.8605,VALID,19,VALID,0.585938,
2012-07-08, 02:52:04,VALID,997.947,VALID,0,VALID,94.3097,VALID,0,VALID,22.8605,VALID,19,VALID,0.401563,
2012-07-08, 02:53:04,VALID,997.932,VALID,0,VALID,94.3479,VALID,0,VALID,22.8623,VALID,19,VALID,0.254687,
2012-07-08, 02:54:04,VALID,997.958,VALID,0,VALID,94.3937,VALID,0,VALID,22.8623,VALID,19,VALID,0.214844,
2012-07-08, 02:55:04,VALID,997.95,VALID,0,VALID,94.47,VALID,0,VALID,22.8818,VALID,19,VALID,0,
2012-07-08, 02:56:04,VALID,997.946,VALID,0,VALID,94.5462,VALID,0,VALID,22.8818,VALID,19,VALID,0,
2012-07-08, 02:57:04,VALID,997.936,VALID,0,VALID,94.6302,VALID,0,VALID,22.9013,VALID,19,VALID,0,
2012-07-08, 02:58:04,VALID,997.948,VALID,0,VALID,94.7141,VALID,0,VALID,22.919,VALID,19,VALID,0,
2012-07-08, 02:59:04,VALID,997.966,VALID,0,VALID,94.737,VALID,0,VALID,22.9403,VALID,19,VALID,0,
2012-07-08, 03:00:04,VALID,997.966,VALID,0,VALID,94.798,VALID,0,VALID,22.919,VALID,19,VALID,0,
2012-07-08, 03:01:04,VALID,997.962,VALID,0,VALID,94.7828,VALID,0,VALID,22.9403,VALID,19,VALID,0,
2012-07-08, 03:02:04,VALID,997.947,VALID,0,VALID,94.8285,VALID,0,VALID,22.9598,VALID,19,VALID,0,
2012-07-08, 03:03:04,VALID,997.956,VALID,0,VALID,94.8133,VALID,0,VALID,22.9403,VALID,19,VALID,0,
2012-07-08, 03:04:04,VALID,997.951,VALID,0,VALID,94.8514,VALID,0,VALID,22.9581,VALID,19,VALID,0,
2012-07-08, 03:05:04,VALID,997.923,VALID,0,VALID,94.8438,VALID,0,VALID,22.9988,VALID,19,VALID,0,
2012-07-08, 03:06:04,VALID,997.925,VALID,0,VALID,94.8591,VALID,0,VALID,22.9581,VALID,19,VALID,0,
2012-07-08, 03:07:04,VALID,997.927,VALID,0,VALID,94.8133,VALID,0,VALID,22.9988,VALID,19,VALID,0,
2012-07-08, 03:08:04,VALID,997.912,VALID,0,VALID,94.676,VALID,0,VALID,22.9793,VALID,19,VALID,0.574609,
2012-07-08, 03:09:04,VALID,997.895,VALID,0,VALID,94.5386,VALID,0,VALID,22.9598,VALID,19,VALID,0.382031,
2012-07-08, 03:10:04,VALID,997.903,VALID,0,VALID,94.4547,VALID,0,VALID,22.9598,VALID,19,VALID,0.378906,
2012-07-08, 03:11:04,VALID,997.886,VALID,0,VALID,94.3555,VALID,0,VALID,22.9598,VALID,19,VALID,0.425781,
2012-07-08, 03:12:04,VALID,997.901,VALID,0,VALID,94.2868,VALID,0,VALID,22.9403,VALID,19,VALID,0.595703,
2012-07-08, 03:13:04,VALID,997.889,VALID,0,VALID,94.1877,VALID,0,VALID,22.9403,VALID,19,VALID,0.610547,
2012-07-08, 03:14:04,VALID,997.919,VALID,0,VALID,94.1495,VALID,0,VALID,22.9013,VALID,19,VALID,0.553125,
2012-07-08, 03:15:04,VALID,997.875,VALID,0,VALID,94.1419,VALID,0,VALID,22.9013,VALID,19,VALID,0.657422,
2012-07-08, 03:16:04,VALID,997.874,VALID,0,VALID,94.119,VALID,0,VALID,22.8623,VALID,19,VALID,0.733203,
2012-07-08, 03:17:04,VALID,997.845,VALID,0,VALID,94.1266,VALID,0,VALID,22.841,VALID,19,VALID,0.746875,
2012-07-08, 03:18:04,VALID,997.837,VALID,0,VALID,94.119,VALID,0,VALID,22.8427,VALID,19,VALID,0.638672,
2012-07-08, 03:19:04,VALID,997.833,VALID,0,VALID,94.1343,VALID,0,VALID,22.8427,VALID,19,VALID,0.486328,
2012-07-08, 03:20:04,VALID,997.81,VALID,0,VALID,94.1648,VALID,0,VALID,22.864,VALID,19,VALID,0.424609,
2012-07-08, 03:21:04,VALID,997.8,VALID,0,VALID,94.2105,VALID,0,VALID,22.8427,VALID,19,VALID,0.380078,
2012-07-08, 03:22:04,VALID,997.801,VALID,0,VALID,94.2334,VALID,0,VALID,22.8427,VALID,19,VALID,0.394531,
2012-07-08, 03:23:04,VALID,997.829,VALID,0,VALID,94.2258,VALID,0,VALID,22.8427,VALID,19,VALID,0.567187,
2012-07-08, 03:24:04,VALID,997.82,VALID,0,VALID,94.2487,VALID,0,VALID,22.8427,VALID,19,VALID,0.791016,
2012-07-08, 03:25:04,VALID,997.816,VALID,0,VALID,94.325,VALID,0,VALID,22.864,VALID,19,VALID,0.7125,
2012-07-08, 03:26:04,VALID,997.808,VALID,0,VALID,94.4394,VALID,0,VALID,22.8623,VALID,19,VALID,0.780469,
2012-07-08, 03:27:04,VALID,997.785,VALID,0,VALID,94.5386,VALID,0,VALID,22.9013,VALID,19,VALID,0.6375,
2012-07-08, 03:28:04,VALID,997.759,VALID,0,VALID,94.6226,VALID,0,VALID,22.9208,VALID,19,VALID,0.551172,
2012-07-08, 03:29:04,VALID,997.768,VALID,0,VALID,94.6607,VALID,0,VALID,22.9403,VALID,19,VALID,0.524609,
2012-07-08, 03:30:04,VALID,997.771,VALID,0,VALID,94.6454,VALID,0,VALID,22.9403,VALID,19,VALID,0.647266,
2012-07-08, 03:31:04,VALID,997.782,VALID,0,VALID,94.6149,VALID,0,VALID,22.9403,VALID,19,VALID,0.544531,
2012-07-08, 03:32:04,VALID,997.737,VALID,0,VALID,94.5768,VALID,0,VALID,22.9208,VALID,19,VALID,0.441016,
2012-07-08, 03:33:04,VALID,997.733,VALID,0,VALID,94.5768,VALID,0,VALID,22.9208,VALID,19,VALID,0.346094,
2012-07-08, 03:34:04,VALID,997.725,VALID,0,VALID,94.5768,VALID,0,VALID,22.9403,VALID,19,VALID,0.351563,
2012-07-08, 03:35:04,VALID,997.741,VALID,0,VALID,94.5997,VALID,0,VALID,22.9403,VALID,19,VALID,0.226563,
2012-07-08, 03:36:04,VALID,997.715,VALID,0,VALID,94.6226,VALID,0,VALID,22.9598,VALID,19,VALID,0.15,
2012-07-08, 03:37:04,VALID,997.716,VALID,0,VALID,94.6378,VALID,0,VALID,22.9598,VALID,19,VALID,0.191016,
2012-07-08, 03:38:04,VALID,997.693,VALID,0,VALID,94.676,VALID,0,VALID,23.0006,VALID,19,VALID,0.196094,
2012-07-08, 03:39:04,VALID,997.718,VALID,0,VALID,94.6912,VALID,0,VALID,22.9988,VALID,19,VALID,0.232422,
2012-07-08, 03:40:04,VALID,997.7,VALID,0,VALID,94.6988,VALID,0,VALID,22.9988,VALID,19,VALID,0.355859,
2012-07-08, 03:41:04,VALID,997.693,VALID,0,VALID,94.7217,VALID,0,VALID,23.0183,VALID,19,VALID,0.635938,
2012-07-08, 03:42:04,VALID,997.682,VALID,0,VALID,94.7751,VALID,0,VALID,23.0573,VALID,19,VALID,0.798047,
2012-07-08, 03:43:04,VALID,997.645,VALID,0,VALID,94.798,VALID,0,VALID,23.0573,VALID,19,VALID,0.696875,
2012-07-08, 03:44:04,VALID,997.657,VALID,0,VALID,94.8285,VALID,0,VALID,23.0964,VALID,19,VALID,0.591406,
2012-07-08, 03:45:04,VALID,997.664,VALID,0,VALID,94.8743,VALID,0,VALID,23.1159,VALID,19,VALID,0.748047,
2012-07-08, 03:46:04,VALID,997.619,VALID,0,VALID,94.9125,VALID,0,VALID,23.1354,VALID,19,VALID,0.742969,
2012-07-08, 03:47:04,VALID,997.607,VALID,0,VALID,94.9583,VALID,0,VALID,23.1744,VALID,19,VALID,0.760156,
2012-07-08, 03:48:04,VALID,997.641,VALID,0,VALID,94.9888,VALID,0,VALID,23.1939,VALID,19,VALID,0.684766,